TSP Talk
logout   logout
Contact Us | Logout
     
September 21, 2017, 1:33 pm (ET / EDT)
TSP Talk Market Comments TSP AutoTracker Premiums Site Map TSP Funds Forum Returns

                 
Tracker Main Menu | Tracker Member Menu | My IFT Records | How to Get Started | Email Updates
                 

Members ranking and current allocation as of: 2017-09-20 (COB)

Press Go back to the previous page   

View a specific date "yyyy-mm-dd"

Underlined column headings can be sorted
Rank Username YTD Returns MTD Returns Start Date
1 crispy 20.52 % 2.70 % 2017-01-01
2 judochop 20.52 % ** 2.70 % 2017-01-01
3 I-fund 20.52 % 2.70 % 2017-01-01
4 nightlite 20.52 % ** 2.70 % 2017-01-01
5 jrutherford2 20.52 % ** 2.70 % 2017-01-01
6 DCKevin 20.52 % ** 2.70 % 2017-01-01
7 2GodBtheGLORY 20.52 % ** 2.70 % 2017-01-01
8 BearTrap 20.52 % ** 2.70 % 2017-01-01
9 jajo1554 20.52 % ** 2.70 % 2017-01-01
10 Kahuna6969 20.52 % ** 2.70 % 2017-01-01
11 SavyNeal 20.52 % ** 2.70 % 2017-01-01
12 Sunnyday 20.52 % ** 2.70 % 2017-01-01
13 Shawhardy 20.52 % ** 2.70 % 2017-01-01
14 SWAVET 19.01 % 2.79 % 2017-01-01
15 tom1tom1 18.63 % 0.47 % 2017-01-01
16 Birchtree 18.57 % ** 2.39 % 2017-01-01
17 dillpickle * 17.96 % ** 2.70 % 2017-01-13
18 RV7 17.73 % 1.79 % 2017-01-01
19 NtvTxan 17.24 % 0.38 % 2017-01-01
20 lbeeba8862 17.12 % ** 2.16 % 2017-01-01
21 triquasar 17.11 % ** 2.70 % 2017-01-01
22 robertbr1963 17.05 % ** 2.14 % 2017-01-01
23 Monzie * 16.98 % ** 2.70 % 2017-01-31
24 cyoa1fan 16.97 % 2.31 % 2017-01-01
25 HarleyLar 16.65 % ** 2.70 % 2017-01-01
26 jnchandrew 16.59 % 2.70 % 2017-01-01
27 chemmie 16.50 % 2.20 % 2017-01-01
28 Skip 16.46 % 2.41 % 2017-01-01
29 Mantonelli 16.37 % 1.84 % 2017-01-01
30 dunwichman 16.24 % ** 2.54 % 2017-01-01
31 Sports_Night 16.07 % ** 2.31 % 2017-01-01
32 sonyctx 16.07 % ** 2.30 % 2017-01-01
33 adestonobis 16.03 % 2.70 % 2017-01-01
34 cmccall661 15.78 % 2.31 % 2017-01-01
35 thebreen 15.59 % ** 2.52 % 2017-01-01
36 siidman 15.49 % 1.41 % 2017-01-01
37 brentmc 15.33 % ** 1.99 % 2017-01-01
38 freemanick 15.30 % 2.70 % 2017-01-01
39 kbennet1 15.27 % 2.70 % 2017-01-01
40 rdsox05 15.27 % ** 2.50 % 2017-01-01
41 STCjUnKie 15.26 % ** 2.50 % 2017-01-01
42 Tot_Global_Mkt 15.26 % ** 2.16 % 2017-01-01
43 bozdog 15.25 % ** 2.50 % 2017-01-01
44 Cheng 15.24 % 2.40 % 2017-01-01
45 KyFan1 15.19 % 2.70 % 2017-01-01
46 14bk41 15.12 % 2.97 % 2017-01-01
47 JPW77 15.01 % ** 2.49 % 2017-01-01
48 1crazyfatboy 14.94 % ** 2.49 % 2017-01-01
49 krempajs 14.93 % ** 2.21 % 2017-01-01
50 misg4420 14.93 % ** 2.30 % 2017-01-01
Rank Username YTD Returns MTD Returns Start Date
51 lifeasrxd 14.89 % ** 2.04 % 2017-01-01
52 rebel346 14.82 % ** 2.70 % 2017-01-01
53 mboja 14.82 % ** 2.49 % 2017-01-01
54 andy 14.80 % ** 1.77 % 2017-01-01
55 lawnman 14.76 % ** 2.48 % 2017-01-01
56 hawktecc1 14.70 % ** 2.17 % 2017-01-01
57 sdidieu 14.68 % ** 1.75 % 2017-01-01
58 waveman43 14.68 % ** 2.14 % 2017-01-01
59 american42 14.66 % ** 2.13 % 2017-01-01
60 felinecrl 14.64 % 2.70 % 2017-01-01
61 fishhead 14.64 % ** 2.04 % 2017-01-01
62 arquintana 14.62 % ** 2.28 % 2017-01-01
63 markmars 14.60 % ** 2.11 % 2017-01-01
64 hg1866 14.59 % ** 2.12 % 2017-01-01
65 GFundBaby 14.58 % ** 2.16 % 2017-01-01
66 dctarheel 14.57 % ** 2.16 % 2017-01-01
67 crazyjames 14.56 % ** 2.17 % 2017-01-01
68 Hodster 14.54 % ** 2.16 % 2017-01-01
69 tshare999 14.53 % ** 2.11 % 2017-01-01
70 flyoa1 14.51 % 2.16 % 2017-01-01
71 Moore 14.50 % ** 2.16 % 2017-01-01
72 GEW 14.49 % ** 2.16 % 2017-01-01
73 Mucho_Dinero 14.48 % 0.62 % 2017-01-01
74 Spydercop 14.47 % 2.32 % 2017-01-01
75 furafura 14.46 % ** 2.03 % 2017-01-01
76 Renegade 14.45 % ** 2.15 % 2017-01-01
77 danie906 14.44 % ** 2.02 % 2017-01-01
78 cojo1988 14.44 % ** 2.15 % 2017-01-01
79 Mustangmoose302 14.43 % 2.25 % 2017-01-01
80 millstadt05 14.42 % ** 2.15 % 2017-01-01
81 flashmanxx 14.41 % ** 2.14 % 2017-01-01
82 etawx 14.40 % ** 2.02 % 2017-01-01
83 RDJ67 14.39 % 2.90 % 2017-01-01
84 fluffypotato 14.39 % ** 2.05 % 2017-01-01
85 bloodbath 14.36 % ** 1.82 % 2017-01-01
86 Forecaster 14.36 % ** 2.01 % 2017-01-01
87 noclue 14.34 % 2.13 % 2017-01-01
88 wwwtractor 14.32 % 1.94 % 2017-01-01
89 meltuna 14.32 % ** 2.61 % 2017-01-01
90 PICK68 14.30 % ** 2.19 % 2017-01-01
91 RoldanFam 14.26 % 1.92 % 2017-01-01
92 dodgerblioux 14.25 % ** 1.93 % 2017-01-01
93 guahan96 14.25 % ** 2.13 % 2017-01-01
94 BigLair 14.23 % 1.62 % 2017-01-01
95 temptec 14.21 % ** 2.15 % 2017-01-01
96 OldGoat * 14.20 % ** 2.70 % 2017-01-11
97 rch8710 14.19 % ** 1.91 % 2017-01-01
98 Pill 14.18 % 2.19 % 2017-01-01
99 jmtz54 14.17 % 1.79 % 2017-01-01
100 Gethers 14.17 % ** 2.04 % 2017-01-01
Rank Username YTD Returns MTD Returns Start Date
101 Ghageman 14.17 % ** 1.99 % 2017-01-01
102 CRUSHER 14.14 % ** 1.90 % 2017-01-01
103 EdwardSF 14.13 % ** 2.04 % 2017-01-01
104 Kong13 14.13 % ** 2.17 % 2017-01-01
105 spinslight1 14.13 % ** 2.17 % 2017-01-01
106 Ozzy_357924 14.11 % ** 2.16 % 2017-01-01
107 BigBully 14.09 % 2.24 % 2017-01-01
108 pokerstar629 14.09 % 1.86 % 2017-01-01
109 jbwalters 14.09 % 1.86 % 2017-01-01
110 uf_rjeezy 14.08 % 1.47 % 2017-01-01
111 aminze 14.07 % ** 2.46 % 2017-01-01
112 Mista_Magee 14.01 % ** 2.31 % 2017-01-01
113 sarriola 14.01 % ** 1.98 % 2017-01-01
114 jason011235813 14.00 % ** 2.05 % 2017-01-01
115 cook79768 13.98 % ** 2.13 % 2017-01-01
116 Jrfich 13.97 % 1.98 % 2017-01-01
117 invisiblebutterknife 13.97 % ** 1.75 % 2017-01-01
118 dlb11693 13.93 % ** 2.28 % 2017-01-01
119 Aviator_Guy 13.88 % 0.84 % 2017-01-01
120 redman1970 13.87 % ** 2.10 % 2017-01-01
121 TXTornados 13.83 % ** 2.70 % 2017-01-01
122 deward 13.78 % ** 2.25 % 2017-01-01
123 usfwsduckriverman 13.77 % ** 1.89 % 2017-01-01
124 petersons 13.71 % ** 2.14 % 2017-01-01
125 Knight25 13.71 % ** 2.14 % 2017-01-01
126 grube00 13.70 % ** 2.08 % 2017-01-01
127 Macgyva 13.70 % ** 2.08 % 2017-01-01
128 xsoljuhxpnoi929 13.69 % 1.58 % 2017-01-01
129 berg1315 13.69 % 1.58 % 2017-01-01
130 BigMike 13.69 % 1.58 % 2017-01-01
131 C-fund 13.69 % 1.58 % 2017-01-01
132 Kayakfish 13.69 % ** 1.58 % 2017-01-01
133 JTH 13.69 % ** 1.58 % 2017-01-01
134 JTH-ALPAFS 13.69 % ** 1.58 % 2017-01-01
135 JTH-ESD 13.69 % ** 1.58 % 2017-01-01
136 MMAC_POPS 13.69 % ** 1.58 % 2017-01-01
137 cthomas946 13.69 % ** 1.58 % 2017-01-01
138 agogley 13.69 % ** 1.58 % 2017-01-01
139 respro 13.69 % ** 1.58 % 2017-01-01
140 brobrash 13.69 % ** 1.58 % 2017-01-01
141 ranma143 13.69 % ** 1.58 % 2017-01-01
142 Lucky91 13.69 % ** 1.58 % 2017-01-01
143 Mack-Daddy 13.69 % ** 1.58 % 2017-01-01
144 Sarchie 13.69 % ** 1.58 % 2017-01-01
145 Devilduck 13.69 % ** 1.58 % 2017-01-01
146 HotRod 13.69 % ** 1.58 % 2017-01-01
147 Jrgruters42 13.69 % ** 1.58 % 2017-01-01
148 abqsammy 13.69 % ** 1.58 % 2017-01-01
149 BLPinDC 13.69 % ** 1.58 % 2017-01-01
150 CheckRaze 13.69 % ** 1.58 % 2017-01-01
Rank Username YTD Returns MTD Returns Start Date
151 Heisenberg 13.69 % ** 1.58 % 2017-01-01
152 jssmith58 13.69 % ** 1.58 % 2017-01-01
153 leadoff2 13.69 % ** 1.58 % 2017-01-01
154 MadMoneyJesse 13.69 % ** 1.58 % 2017-01-01
155 melandblue 13.69 % ** 1.58 % 2017-01-01
156 mepage 13.69 % ** 1.58 % 2017-01-01
157 messimoves 13.69 % ** 1.58 % 2017-01-01
158 MOVINUP 13.69 % ** 1.58 % 2017-01-01
159 pcola5625 13.69 % ** 1.58 % 2017-01-01
160 ShadowAx 13.69 % ** 1.58 % 2017-01-01
161 Sirius 13.69 % ** 1.58 % 2017-01-01
162 squid3326 13.69 % ** 1.58 % 2017-01-01
163 TheRealEDtheFED 13.69 % ** 1.58 % 2017-01-01
164 janemattress711 13.68 % 2.14 % 2017-01-01
165 Short 13.68 % ** 1.95 % 2017-01-01
166 BirchNWS 13.68 % ** 2.08 % 2017-01-01
167 gsrider 13.67 % ** 2.14 % 2017-01-01
168 BrandesValue 13.67 % ** 2.03 % 2017-01-01
169 soupykid 13.56 % 1.39 % 2017-01-01
170 BessMan94 13.53 % ** 2.05 % 2017-01-01
171 sapfm 13.53 % ** 2.20 % 2017-01-01
172 jswright 13.52 % ** 2.20 % 2017-01-01
173 evimoore 13.52 % ** 2.06 % 2017-01-01
174 markisrt4 13.44 % ** 2.38 % 2017-01-01
175 Beamer 13.42 % 1.95 % 2017-01-01
176 dtrax 13.42 % ** 2.06 % 2017-01-01
177 maverick06 13.36 % 1.58 % 2017-01-01
178 Boozin1 13.36 % ** 2.17 % 2017-01-01
179 Robin_hood 13.31 % 0.55 % 2017-01-01
180 jaks51 13.31 % ** 2.42 % 2017-01-01
181 tsclippinger 13.28 % ** 1.82 % 2017-01-01
182 sjcook23 13.25 % 1.13 % 2017-01-01
183 Morpheus 13.24 % 1.83 % 2017-01-01
184 ROCKMAXX 13.23 % 0.99 % 2017-01-01
185 IceJoe 13.22 % ** 2.13 % 2017-01-01
186 workdamnit 13.21 % ** 1.95 % 2017-01-01
187 Damndogs 13.20 % 1.65 % 2017-01-01
188 Beagle * 13.19 % 2.31 % 2017-01-24
189 mrtruckaudi 13.18 % 1.53 % 2017-01-01
190 MRJ 13.17 % 3.00 % 2017-01-01
191 UCFVern 13.15 % 2.14 % 2017-01-01
192 cwbys223 13.11 % ** 2.42 % 2017-01-01
193 LAT 13.04 % ** 2.31 % 2017-01-01
194 LilLair 13.01 % ** 1.88 % 2017-01-01
195 Sniki 12.99 % ** 2.00 % 2017-01-01
196 jplecain 12.98 % ** 1.92 % 2017-01-01
197 almostdone 12.97 % ** 1.75 % 2017-01-01
198 bombnav1 12.97 % ** 1.92 % 2017-01-01
199 kmx23 12.96 % ** 1.91 % 2017-01-01
200 bcf0514 12.95 % ** 1.75 % 2017-01-01
Rank Username YTD Returns MTD Returns Start Date
201 93GT 12.94 % 1.68 % 2017-01-01
202 Jayt23 12.94 % ** 1.68 % 2017-01-01
203 L2050 12.94 % 1.68 % 2017-01-01
204 tashabh 12.94 % ** 1.68 % 2017-01-01
205 Caith 12.94 % ** 1.68 % 2017-01-01
206 Kjay 12.94 % ** 1.68 % 2017-01-01
207 gio20 12.94 % ** 1.68 % 2017-01-01
208 doug.hornback 12.94 % ** 1.68 % 2017-01-01
209 khunk 12.94 % ** 1.68 % 2017-01-01
210 qbcall11 12.94 % ** 1.68 % 2017-01-01
211 Shivers 12.94 % ** 1.68 % 2017-01-01
212 Wrngway 12.94 % ** 1.68 % 2017-01-01
213 DesertBoots77 12.94 % ** 1.68 % 2017-01-01
214 vafunkie 12.93 % ** 2.22 % 2017-01-01
215 lartra 12.89 % 0.22 % 2017-01-01
216 nicole5001 12.87 % ** 1.64 % 2017-01-01
217 shaner19er 12.87 % ** 1.81 % 2017-01-01
218 8_percent 12.86 % ** 1.58 % 2017-01-01
219 bdmkg 12.84 % -0.46 % 2017-01-01
220 SICK2MYSTOMACH 12.83 % 1.71 % 2017-01-01
221 GenStar 12.82 % 1.26 % 2017-01-01
222 pdug 12.79 % 2.28 % 2017-01-01
223 Craigart 12.79 % ** 1.79 % 2017-01-01
224 revel 12.78 % ** 1.80 % 2017-01-01
225 GWXX 12.78 % ** 1.79 % 2017-01-01
226 jdeacon 12.73 % ** 1.67 % 2017-01-01
227 gaharris 12.72 % ** 2.09 % 2017-01-01
228 Boots22 12.72 % ** 2.17 % 2017-01-01
229 urmomzbox 12.71 % ** 2.03 % 2017-01-01
230 Kotcha 12.68 % ** 2.04 % 2017-01-01
231 modom07 * 12.66 % ** 2.51 % 2017-02-02
232 trobbi33 12.66 % ** 1.82 % 2017-01-01
233 spacepoints 12.65 % ** 1.73 % 2017-01-01
234 Knot_Guilty 12.64 % 1.41 % 2017-01-01
235 les2l8 12.64 % 2.30 % 2017-01-01
236 WallStreet 12.64 % ** 1.83 % 2017-01-01
237 bjean 12.63 % 2.70 % 2017-01-01
238 Andeano 12.62 % ** 1.79 % 2017-01-01
239 jsmiles 12.60 % 2.35 % 2017-01-01
240 smiles 12.60 % 2.35 % 2017-01-01
241 tankerclown 12.58 % ** 2.22 % 2017-01-01
242 evchau 12.56 % 2.05 % 2017-01-01
243 RWJorg 12.54 % ** 1.58 % 2017-01-01
244 buckeyefan201 12.54 % ** 1.92 % 2017-01-01
245 Pittdog 12.53 % 2.00 % 2017-01-01
246 widdicom 12.53 % 2.31 % 2017-01-01
247 Total_US_Market 12.52 % ** 1.86 % 2017-01-01
248 Sandbagger6 12.51 % 2.27 % 2017-01-01
249 garrisoco 12.51 % ** 1.86 % 2017-01-01
250 AzzySpazbourne 12.50 % ** 1.85 % 2017-01-01
Rank Username YTD Returns MTD Returns Start Date
251 Piniquim 12.50 % ** 1.86 % 2017-01-01
252 Widget 12.49 % ** 1.86 % 2017-01-01
253 shagerty 12.49 % ** 1.87 % 2017-01-01
254 rotti 12.49 % ** 1.86 % 2017-01-01
255 dcmorgan 12.49 % ** 1.86 % 2017-01-01
256 Scarfinger68 12.48 % ** 1.87 % 2017-01-01
257 atarrin 12.48 % ** 1.74 % 2017-01-01
258 towncop1978 12.47 % ** 0.12 % 2017-01-01
259 evob 12.47 % ** 2.51 % 2017-01-01
260 DakotaKid 12.47 % ** 1.87 % 2017-01-01
261 Clemso 12.46 % ** 2.39 % 2017-01-01
262 malyla 12.45 % ** -0.48 % 2017-01-01
263 gsamx 12.44 % ** 2.39 % 2017-01-01
264 mikepop 12.43 % 1.33 % 2017-01-01
265 cletuss * 12.42 % 2.70 % 2017-04-06
266 Rod 12.41 % ** 1.88 % 2017-01-01
267 DigDugII 12.41 % ** 2.39 % 2017-01-01
268 RX-7 12.40 % 2.14 % 2017-01-01
269 martint4 12.40 % ** 1.96 % 2017-01-01
270 glysergt 12.39 % 1.50 % 2017-01-01
271 eecscoder 12.38 % ** 2.11 % 2017-01-01
272 RookieInvestor 12.38 % ** 1.63 % 2017-01-01
273 Cash_Money 12.36 % 0.79 % 2017-01-01
274 goforit 12.34 % ** 1.80 % 2017-01-01
275 ksteiner560 12.32 % 2.21 % 2017-01-01
276 denbo 12.30 % 0.12 % 2017-01-01
277 joehacker 12.29 % ** 2.14 % 2017-01-01
278 Highroller 12.29 % ** 1.59 % 2017-01-01
279 bluecrab 12.28 % 1.96 % 2017-01-01
280 ken863 12.27 % 0.40 % 2017-01-01
281 jpwmasters * 12.25 % ** 2.70 % 2017-03-20
282 Chorizo * 12.24 % 0.26 % 2017-01-09
283 MoneyManager 12.24 % ** 1.92 % 2017-01-01
284 mdearman 12.24 % ** 1.70 % 2017-01-01
285 jpaulhus 12.23 % ** 1.93 % 2017-01-01
286 Jayru 12.22 % ** 1.80 % 2017-01-01
287 HocusPocus 12.22 % ** 1.93 % 2017-01-01
288 valions15 12.22 % ** 1.93 % 2017-01-01
289 rivs 12.22 % ** 1.93 % 2017-01-01
290 pcalderin 12.21 % ** 1.93 % 2017-01-01
291 SPN46er 12.21 % ** 1.93 % 2017-01-01
292 KneednDough 12.21 % ** 1.93 % 2017-01-01
293 badgerland 12.20 % 1.81 % 2017-01-01
294 jpcavin 12.20 % ** 1.98 % 2017-01-01
295 vbbikerbums 12.20 % ** 1.93 % 2017-01-01
296 Ddarko 12.20 % ** 1.93 % 2017-01-01
297 helen 12.19 % ** 1.94 % 2017-01-01
298 Jqsomera 12.19 % ** 1.65 % 2017-01-01
299 SSJodon 12.19 % ** 1.94 % 2017-01-01
300 Rumpelstilzchen 12.19 % ** 1.94 % 2017-01-01
Rank Username YTD Returns MTD Returns Start Date
301 retire2017 12.19 % ** 1.94 % 2017-01-01
302 SuzinCity 12.19 % ** 1.94 % 2017-01-01
303 weigerber55 12.19 % ** 1.94 % 2017-01-01
304 drgonzo58 12.19 % ** 1.94 % 2017-01-01
305 OBGibby 12.18 % 1.94 % 2017-01-01
306 dunedad 12.18 % 1.94 % 2017-01-01
307 jamilaunc 12.18 % ** 1.94 % 2017-01-01
308 future 12.18 % ** 1.94 % 2017-01-01
309 jerzystang 12.18 % ** 1.65 % 2017-01-01
310 Raxser 12.18 % ** 1.94 % 2017-01-01
311 Unmanned 12.17 % 2.23 % 2017-01-01
312 poolman 12.17 % ** 1.94 % 2017-01-01
313 jayew007 12.17 % ** 1.94 % 2017-01-01
314 SkyPilot 12.17 % ** 1.94 % 2017-01-01
315 bettertrader 12.17 % ** 1.94 % 2017-01-01
316 bubba71842 12.17 % ** 1.94 % 2017-01-01
317 divemonkey 12.17 % ** 1.94 % 2017-01-01
318 Lucas123 12.17 % ** 1.94 % 2017-01-01
319 25or6to4 12.16 % ** 1.94 % 2017-01-01
320 mceglia 12.16 % ** 1.94 % 2017-01-01
321 RAMORIPKIN 12.16 % ** 1.94 % 2017-01-01
322 packerbart 12.15 % 1.95 % 2017-01-01
323 inyadreems 12.15 % ** 1.95 % 2017-01-01
324 elufints 12.15 % ** 1.95 % 2017-01-01
325 tgun 12.15 % ** 1.95 % 2017-01-01
326 don3149 12.14 % ** 1.95 % 2017-01-01
327 scubasteve1 12.14 % ** 1.95 % 2017-01-01
328 Stony 12.14 % ** 1.95 % 2017-01-01
329 surftec 12.14 % ** 1.95 % 2017-01-01
330 GonzoJK 12.13 % 1.95 % 2017-01-01
331 TSP-roulette 12.13 % 1.95 % 2017-01-01
332 tlap612 12.13 % ** 1.95 % 2017-01-01
333 JG2017 12.13 % ** 1.95 % 2017-01-01
334 rossbrian00 12.12 % 1.95 % 2017-01-01
335 mpie72 12.12 % ** 1.73 % 2017-01-01
336 MYDOGZCUTE 12.11 % ** 1.96 % 2017-01-01
337 sage 12.08 % ** 1.79 % 2017-01-01
338 tmntrc56 12.07 % ** 1.96 % 2017-01-01
339 Trapperpaul 12.05 % 1.10 % 2017-01-01
340 rjeeeeezy 12.05 % ** 1.76 % 2017-01-01
341 william4x 12.05 % ** 1.74 % 2017-01-01
342 Wizard_of_Oz 12.03 % ** 1.98 % 2017-01-01
343 redman2222 12.00 % ** 1.51 % 2017-01-01
344 vexter 11.97 % ** 1.58 % 2017-01-01
345 puppylove 11.95 % ** 1.91 % 2017-01-01
346 redcard 11.92 % ** 1.58 % 2017-01-01
347 FedSince2009 11.91 % ** 1.49 % 2017-01-01
348 joharo 11.90 % ** 2.01 % 2017-01-01
349 Gain10 11.89 % ** 2.01 % 2017-01-01
350 TDStrange 11.88 % 1.40 % 2017-01-01
Rank Username YTD Returns MTD Returns Start Date
351 Benny7563 11.88 % 2.10 % 2017-01-01
352 Niner49er52 11.88 % ** 2.01 % 2017-01-01
353 lmbebo 11.88 % ** 1.81 % 2017-01-01
354 adam 11.87 % 1.58 % 2017-01-01
355 TSPBrett 11.87 % ** 2.01 % 2017-01-01
356 JVC1979 11.86 % 2.70 % 2017-01-01
357 Calicat69 11.86 % ** 1.64 % 2017-01-01
358 kibey84 11.85 % ** 2.02 % 2017-01-01
359 DoughBoy 11.85 % ** 2.02 % 2017-01-01
360 galaxy101 11.84 % 1.83 % 2017-01-01
361 rbizz 11.84 % 2.70 % 2017-01-01
362 moneymikem 11.84 % 2.70 % 2017-01-01
363 rwwjr65 11.84 % ** 2.02 % 2017-01-01
364 itsRaining 11.82 % ** 2.03 % 2017-01-01
365 Supernova2033 11.80 % ** 1.45 % 2017-01-01
366 miyagi 11.79 % ** 1.93 % 2017-01-01
367 Big_Sarge 11.77 % ** 2.01 % 2017-01-01
368 ksklmiller 11.76 % ** 2.01 % 2017-01-01
369 40calSue 11.75 % 2.42 % 2017-01-01
370 mosicki 11.74 % ** 1.79 % 2017-01-01
371 LMBF1_Day 11.72 % -0.48 % 2017-01-01
372 Inertia 11.71 % ** 1.48 % 2017-01-01
373 PublicServant * 11.69 % ** 2.03 % 2017-02-01
374 tkd1982 11.68 % ** 1.66 % 2017-01-01
375 Mercy 11.68 % ** 1.48 % 2017-01-01
376 riptide17 11.67 % 1.86 % 2017-01-01
377 Elktracker 11.67 % 0.29 % 2017-01-01
378 Richman52 * 11.66 % ** 2.20 % 2017-01-27
379 Boxholder 11.63 % 0.87 % 2017-01-01
380 retire15 11.61 % ** 2.31 % 2017-01-01
381 kujayhawk69 11.61 % ** 1.49 % 2017-01-01
382 L2040 11.59 % 1.48 % 2017-01-01
383 soupygirl 11.59 % ** 1.48 % 2017-01-01
384 Salmon365 11.59 % ** 1.48 % 2017-01-01
385 soam24 11.59 % ** 1.48 % 2017-01-01
386 Castronaut 11.59 % ** 1.48 % 2017-01-01
387 Forcefed 11.59 % ** 1.48 % 2017-01-01
388 GOVOLS 11.59 % ** 1.48 % 2017-01-01
389 soupydog 11.59 % ** 1.48 % 2017-01-01
390 Tvenos 11.59 % ** 1.48 % 2017-01-01
391 Awsum_Al 11.59 % ** 2.08 % 2017-01-01
392 funkyhunky 11.58 % ** 2.10 % 2017-01-01
393 pjsstuff71 11.57 % 2.31 % 2017-01-01
394 justbidinmytime 11.57 % ** 1.68 % 2017-01-01
395 Tubman83 11.57 % ** 2.09 % 2017-01-01
396 Skooby 11.56 % 2.48 % 2017-01-01
397 stacks 11.56 % ** 2.09 % 2017-01-01
398 sparty83 11.55 % 1.72 % 2017-01-01
399 Carwin 11.54 % 0.86 % 2017-01-01
400 Kafkaesquee 11.54 % ** 2.09 % 2017-01-01
Rank Username YTD Returns MTD Returns Start Date
401 JimmyJoe 11.54 % ** 2.21 % 2017-01-01
402 czapor1967 11.53 % ** 2.70 % 2017-01-01
403 resurgemus 11.50 % 1.43 % 2017-01-01
404 Shamus13 11.50 % 1.20 % 2017-01-01
405 LMBF1_C>S 11.50 % -0.48 % 2017-01-01
406 Riverman62 11.48 % ** 1.47 % 2017-01-01
407 saxman 11.47 % ** 1.48 % 2017-01-01
408 texcc 11.46 % ** 2.31 % 2017-01-01
409 ijmurray 11.46 % ** 2.35 % 2017-01-01
410 playboy 11.44 % ** 1.32 % 2017-01-01
411 Burt 11.43 % ** 2.12 % 2017-01-01
412 Bullseye 11.42 % ** 2.13 % 2017-01-01
413 Barney 11.42 % ** 2.13 % 2017-01-01
414 savagemojo 11.42 % ** 2.12 % 2017-01-01
415 Bullet 11.40 % 2.05 % 2017-01-01
416 ldm1958 11.40 % ** 1.36 % 2017-01-01
417 asuasylum 11.38 % 1.82 % 2017-01-01
418 TheGizz 11.37 % ** 1.55 % 2017-01-01
419 boilerman 11.35 % 1.47 % 2017-01-01
420 Sad_Al 11.35 % 1.86 % 2017-01-01
421 Jane 11.35 % 2.10 % 2017-01-01
422 Weather_n_Leather 11.35 % ** 1.61 % 2017-01-01
423 kraplrak 11.34 % -0.46 % 2017-01-01
424 fedgolfer 11.33 % 1.38 % 2017-01-01
425 roonie 11.32 % ** 1.94 % 2017-01-01
426 MakeItRain 11.31 % 0.79 % 2017-01-01
427 joewashdc 11.31 % ** 1.53 % 2017-01-01
428 KRSSDSU 11.29 % 2.08 % 2017-01-01
429 silver2828 11.29 % 2.35 % 2017-01-01
430 k9lowe 11.27 % ** 1.43 % 2017-01-01
431 markopolno12 11.26 % ** 2.16 % 2017-01-01
432 BGBassLady64 11.21 % ** 1.75 % 2017-01-01
433 slakker97 11.20 % ** 1.38 % 2017-01-01
434 ShadowHawk 11.19 % -0.23 % 2017-01-01
435 Markster70 11.19 % 1.55 % 2017-01-01
436 Bball 11.18 % ** 1.74 % 2017-01-01
437 1Mech 11.17 % 2.25 % 2017-01-01
438 NavyGirl88 11.14 % 1.51 % 2017-01-01
439 mrmaxd 11.12 % ** 1.51 % 2017-01-01
440 cbp03 11.10 % ** 1.92 % 2017-01-01
441 ChessGuy 11.09 % ** 2.17 % 2017-01-01
442 u.s.dan 11.08 % 1.68 % 2017-01-01
443 marshad_786 11.08 % 2.40 % 2017-01-01
444 lsutiger1985 11.06 % ** 1.82 % 2017-01-01
445 Boghie 11.05 % 0.97 % 2017-01-01
446 biomedrick 11.02 % ** 0.80 % 2017-01-01
447 ArchAngel 10.98 % ** 1.58 % 2017-01-01
448 silversurfer 10.96 % ** 2.36 % 2017-01-01
449 Shakenbake * 10.95 % 2.70 % 2017-01-11
450 eddie3375 10.94 % ** 1.58 % 2017-01-01
Rank Username YTD Returns MTD Returns Start Date
451 PIC153BD 10.92 % ** 2.31 % 2017-01-01
452 puddy 10.88 % 1.63 % 2017-01-01
453 pwclantdiv 10.87 % ** 1.03 % 2017-01-01
454 lilbob 10.86 % ** 1.44 % 2017-01-01
455 tucahay 10.80 % ** 2.31 % 2017-01-01
456 martycox88 10.80 % ** 2.31 % 2017-01-01
457 Class 10.78 % 0.65 % 2017-01-01
458 Jayeks 10.78 % 1.90 % 2017-01-01
459 jerodt 10.78 % ** 2.14 % 2017-01-01
460 mathewsz7 * 10.76 % 2.47 % 2017-03-06
461 JOSE123 10.76 % ** 1.46 % 2017-01-01
462 endoskell 10.75 % ** 2.06 % 2017-01-01
463 CapnEddie 10.73 % ** 2.31 % 2017-01-01
464 rothnroll 10.72 % 2.14 % 2017-01-01
465 scrsvs 10.70 % 0.35 % 2017-01-01
466 BigJohn 10.69 % 0.12 % 2017-01-01
467 goose 10.68 % 0.12 % 2017-01-01
468 philcam 10.68 % 2.70 % 2017-01-01
469 marco59 10.66 % 2.31 % 2017-01-01
470 thinkman 10.66 % 2.31 % 2017-01-01
471 skid-kid 10.66 % 2.31 % 2017-01-01
472 48cj2a 10.66 % 2.31 % 2017-01-01
473 b52vqn 10.66 % 2.31 % 2017-01-01
474 G-Money 10.66 % 2.31 % 2017-01-01
475 Racerx919 10.66 % 2.31 % 2017-01-01
476 Babygirl07 10.66 % 2.31 % 2017-01-01
477 steve10608 10.66 % 2.31 % 2017-01-01
478 krash9561 10.66 % 2.31 % 2017-01-01
479 MaStA 10.66 % ** 2.31 % 2017-01-01
480 jwblanfo 10.66 % ** 2.31 % 2017-01-01
481 Cashflow911 10.66 % ** 2.31 % 2017-01-01
482 gronk007 10.66 % ** 2.31 % 2017-01-01
483 NavyEng 10.66 % ** 2.31 % 2017-01-01
484 kodaq2001 10.66 % ** 2.31 % 2017-01-01
485 caseyd8s 10.66 % ** 2.31 % 2017-01-01
486 a1sauce 10.66 % ** 2.31 % 2017-01-01
487 Brinky 10.66 % ** 2.31 % 2017-01-01
488 ckeiththeman 10.66 % ** 2.31 % 2017-01-01
489 madchili 10.66 % ** 2.31 % 2017-01-01
490 radarvector 10.66 % ** 2.31 % 2017-01-01
491 BrkBred247 10.66 % ** 2.31 % 2017-01-01
492 Peteylaw06 10.66 % ** 2.31 % 2017-01-01
493 ccarrolls 10.66 % ** 2.31 % 2017-01-01
494 kcfz0t 10.66 % ** 2.31 % 2017-01-01
495 ttn 10.66 % ** 2.31 % 2017-01-01
496 S-fund 10.66 % 2.31 % 2017-01-01
497 jmartello 10.66 % ** 2.31 % 2017-01-01
498 n.shift 10.66 % ** 2.31 % 2017-01-01
499 mikepriest 10.66 % ** 2.31 % 2017-01-01
500 Reggie0622 10.66 % ** 2.31 % 2017-01-01
Rank Username YTD Returns MTD Returns Start Date
501 mxtwo50r 10.66 % ** 2.31 % 2017-01-01
502 dseery3 10.66 % ** 2.31 % 2017-01-01
503 spantzer 10.66 % ** 2.31 % 2017-01-01
504 jbvollmer 10.66 % ** 2.31 % 2017-01-01
505 bylow-cellhi 10.66 % ** 2.31 % 2017-01-01
506 mr47930 10.66 % ** 2.31 % 2017-01-01
507 canmannc 10.66 % ** 2.31 % 2017-01-01
508 captjamied 10.66 % ** 2.31 % 2017-01-01
509 Bettinainc 10.66 % ** 2.31 % 2017-01-01
510 Woodys_World 10.66 % ** 2.31 % 2017-01-01
511 jetjammr 10.66 % ** 2.31 % 2017-01-01
512 68chevy 10.66 % ** 2.31 % 2017-01-01
513 sythbpr 10.66 % ** 2.31 % 2017-01-01
514 Aiagib 10.66 % ** 2.31 % 2017-01-01
515 MahiChaser 10.66 % ** 2.31 % 2017-01-01
516 atenciord 10.66 % ** 2.31 % 2017-01-01
517 Sensei 10.66 % ** 2.31 % 2017-01-01
518 scaredstiff 10.66 % ** 2.31 % 2017-01-01
519 kleios 10.66 % ** 2.31 % 2017-01-01
520 walterramjet 10.66 % ** 2.31 % 2017-01-01
521 RabbiTuckman 10.66 % ** 2.31 % 2017-01-01
522 Dexter 10.66 % ** 2.31 % 2017-01-01
523 BReine13 10.66 % ** 2.31 % 2017-01-01
524 DylanFan 10.66 % ** 2.31 % 2017-01-01
525 mollshark 10.66 % ** 2.31 % 2017-01-01
526 recki13 10.66 % ** 2.31 % 2017-01-01
527 kawzman 10.66 % ** 2.31 % 2017-01-01
528 NiteFlyer 10.66 % ** 2.31 % 2017-01-01
529 sniper 10.66 % ** 2.31 % 2017-01-01
530 Uptrend 10.66 % ** 2.31 % 2017-01-01
531 Legend 10.66 % ** 2.31 % 2017-01-01
532 Hank2 10.66 % ** 2.31 % 2017-01-01
533 barryc 10.66 % ** 2.31 % 2017-01-01
534 HookemDanno 10.66 % ** 2.31 % 2017-01-01
535 vdubya 10.66 % ** 2.31 % 2017-01-01
536 Dave98 10.66 % ** 2.31 % 2017-01-01
537 applejack 10.66 % ** 2.31 % 2017-01-01
538 D_Brown 10.66 % ** 2.31 % 2017-01-01
539 Piesanders 10.66 % ** 2.31 % 2017-01-01
540 uphan 10.66 % ** 2.31 % 2017-01-01
541 Cmarq2k2 10.66 % ** 2.31 % 2017-01-01
542 ReverendHerc 10.66 % ** 2.31 % 2017-01-01
543 antauz 10.66 % ** 2.31 % 2017-01-01
544 horseman 10.66 % ** 2.31 % 2017-01-01
545 SPUR 10.66 % ** 2.31 % 2017-01-01
546 uscs344 10.66 % ** 2.31 % 2017-01-01
547 1953greg 10.66 % ** 2.31 % 2017-01-01
548 5hundy 10.66 % ** 2.31 % 2017-01-01
549 accountant02130 10.66 % ** 2.31 % 2017-01-01
550 albwrong 10.66 % ** 2.31 % 2017-01-01
Rank Username YTD Returns MTD Returns Start Date
551 andercee 10.66 % ** 2.31 % 2017-01-01
552 Asylum 10.66 % ** 2.31 % 2017-01-01
553 barb41048 10.66 % ** 2.31 % 2017-01-01
554 BichonFreeze 10.66 % ** 2.31 % 2017-01-01
555 bigcat61 10.66 % ** 2.31 % 2017-01-01
556 bobmarley753 10.66 % ** 2.31 % 2017-01-01
557 BP171 10.66 % ** 2.31 % 2017-01-01
558 Bravos_Time! 10.66 % ** 2.31 % 2017-01-01
559 bucket 10.66 % ** 2.31 % 2017-01-01
560 ccharsh22 10.66 % ** 2.31 % 2017-01-01
561 Dalz 10.66 % ** 2.31 % 2017-01-01
562 Dartman 10.66 % ** 2.31 % 2017-01-01
563 delldell 10.66 % ** 2.31 % 2017-01-01
564 dojdave 10.66 % ** 2.31 % 2017-01-01
565 DonKeyhote 10.66 % ** 2.31 % 2017-01-01
566 Dsots 10.66 % ** 2.31 % 2017-01-01
567 elinca 10.66 % ** 2.31 % 2017-01-01
568 engr_villa 10.66 % ** 2.31 % 2017-01-01
569 ericwinn 10.66 % ** 2.31 % 2017-01-01
570 FISHHEADS 10.66 % ** 2.31 % 2017-01-01
571 flipman 10.66 % ** 2.31 % 2017-01-01
572 gagobutos 10.66 % ** 2.31 % 2017-01-01
573 gdraft 10.66 % ** 2.31 % 2017-01-01
574 hardyandtiny 10.66 % ** 2.31 % 2017-01-01
575 Howanic 10.66 % ** 2.31 % 2017-01-01
576 Jagman26 10.66 % ** 2.31 % 2017-01-01
577 Jaygoots 10.66 % ** 2.31 % 2017-01-01
578 Jimmys_Girl 10.66 % ** 2.31 % 2017-01-01
579 Kylee 10.66 % ** 2.31 % 2017-01-01
580 ldrltjg 10.66 % ** 2.31 % 2017-01-01
581 lestampoc 10.66 % ** 2.31 % 2017-01-01
582 liquidh2o 10.66 % ** 2.31 % 2017-01-01
583 Magic 10.66 % ** 2.31 % 2017-01-01
584 marcusg 10.66 % ** 2.31 % 2017-01-01
585 martypantsss 10.66 % ** 2.31 % 2017-01-01
586 mikrodojr 10.66 % ** 2.31 % 2017-01-01
587 minhan_1408 10.66 % ** 2.31 % 2017-01-01
588 mrfishing 10.66 % ** 2.31 % 2017-01-01
589 Mr_Mojo_Rising 10.66 % ** 2.31 % 2017-01-01
590 mustbev 10.66 % ** 2.31 % 2017-01-01
591 NationalGuard 10.66 % ** 2.31 % 2017-01-01
592 navgod34 10.66 % ** 2.31 % 2017-01-01
593 Newbie 10.66 % ** 2.31 % 2017-01-01
594 nnewman 10.66 % ** 2.31 % 2017-01-01
595 pops 10.66 % ** 2.31 % 2017-01-01
596 pwagner3md 10.66 % ** 2.31 % 2017-01-01
597 rabbithimself 10.66 % ** 2.31 % 2017-01-01
598 Revanshill 10.66 % ** 2.31 % 2017-01-01
599 Rifleman 10.66 % ** 2.31 % 2017-01-01
600 rwmiller50 10.66 % ** 2.31 % 2017-01-01
Rank Username YTD Returns MTD Returns Start Date
601 sball.ca 10.66 % ** 2.31 % 2017-01-01
602 SeaOtter 10.66 % ** 2.31 % 2017-01-01
603 shelby642 10.66 % ** 2.31 % 2017-01-01
604 shoeboxgorilla 10.66 % ** 2.31 % 2017-01-01
605 skbn 10.66 % ** 2.31 % 2017-01-01
606 Snake1b4 10.66 % ** 2.31 % 2017-01-01
607 SPANK550 10.66 % ** 2.31 % 2017-01-01
608 SR101 10.66 % ** 2.31 % 2017-01-01
609 TaillightMafia 10.66 % ** 2.31 % 2017-01-01
610 taronsr 10.66 % ** 2.31 % 2017-01-01
611 tekpc2k2 10.66 % ** 2.31 % 2017-01-01
612 theScientist 10.66 % ** 2.31 % 2017-01-01
613 tlmathe 10.66 % ** 2.31 % 2017-01-01
614 trwill7172 10.66 % ** 2.31 % 2017-01-01
615 victoria 10.66 % ** 2.31 % 2017-01-01
616 vintage53 10.66 % ** 2.31 % 2017-01-01
617 wolfpup77 10.66 % ** 2.31 % 2017-01-01
618 Wulfie 10.66 % ** 2.31 % 2017-01-01
619 wsureshoot 10.66 % ** 2.31 % 2017-01-01
620 drewcifer 10.66 % ** 2.31 % 2017-01-01
621 snwbrdr397 10.66 % ** 2.31 % 2017-01-01
622 Handballer 10.66 % ** 2.31 % 2017-01-01
623 Steelhead 10.66 % ** 2.31 % 2017-01-01
624 wddolson 10.66 % ** 2.31 % 2017-01-01
625 DetroitLifer 10.66 % ** 2.31 % 2017-01-01
626 Crackon 10.66 % ** 2.31 % 2017-01-01
627 LMBF_Method 10.66 % ** 2.31 % 2017-01-01
628 EricDeLee 10.65 % 2.03 % 2017-01-01
629 dave 10.65 % ** 1.58 % 2017-01-01
630 kemphrunner 10.58 % 2.39 % 2017-01-01
631 FatMan 10.57 % 0.12 % 2017-01-01
632 OnTarget 10.56 % 0.12 % 2017-01-01
633 bkc2a 10.55 % 0.29 % 2017-01-01
634 trudger 10.54 % 1.52 % 2017-01-01
635 SCHAGAN 10.54 % 0.12 % 2017-01-01
636 oOSupremeOo 10.53 % 1.87 % 2017-01-01
637 mcash 10.53 % ** 1.25 % 2017-01-01
638 Kaufmanrider 10.52 % ** 1.35 % 2017-01-01
639 ejholt 10.52 % ** 2.05 % 2017-01-01
640 ferretgrl 10.51 % ** 1.65 % 2017-01-01
641 mikeginva 10.51 % ** 1.65 % 2017-01-01
642 yanni123 10.50 % ** 2.29 % 2017-01-01
643 Bighorn6 10.48 % 0.54 % 2017-01-01
644 ILoveTDs 10.48 % 2.51 % 2017-01-01
645 CapeChem 10.44 % ** 1.32 % 2017-01-01
646 TraderJane 10.42 % 1.58 % 2017-01-01
647 babydux 10.41 % ** 2.31 % 2017-01-01
648 Jaybird79 10.38 % ** 1.63 % 2017-01-01
649 StockSurfer 10.36 % 1.54 % 2017-01-01
650 cvlsvt 10.36 % ** 1.34 % 2017-01-01
Rank Username YTD Returns MTD Returns Start Date
651 sigj 10.33 % ** 2.31 % 2017-01-01
652 SPOT_LT 10.32 % 0.80 % 2017-01-01
653 codezero 10.32 % ** 1.63 % 2017-01-01
654 tm85 10.28 % ** 1.43 % 2017-01-01
655 mallardman89 10.26 % ** 0.93 % 2017-01-01
656 Phil46 10.24 % ** 1.32 % 2017-01-01
657 beachfront * 10.21 % ** 1.94 % 2017-01-30
658 cfwcfw 10.21 % ** 1.63 % 2017-01-01
659 eshore07 10.20 % 1.82 % 2017-01-01
660 iyoung 10.18 % ** 1.09 % 2017-01-01
661 tjdorrie 10.17 % ** 1.38 % 2017-01-01
662 gk10128 10.13 % 2.03 % 2017-01-01
663 catsathome 10.13 % 2.84 % 2017-01-01
664 txfan 10.13 % 1.94 % 2017-01-01
665 Pickles 10.12 % 2.31 % 2017-01-01
666 weather 10.11 % ** 1.26 % 2017-01-01
667 L2030 10.11 % 1.26 % 2017-01-01
668 LeCouchonDingue 10.11 % ** 1.26 % 2017-01-01
669 DrScooter 10.11 % ** 1.26 % 2017-01-01
670 marka1620 10.11 % ** 1.26 % 2017-01-01
671 pathalford 10.11 % ** 1.26 % 2017-01-01
672 phlames 10.10 % 2.31 % 2017-01-01
673 pinion 10.10 % 1.31 % 2017-01-01
674 felixthecat 10.10 % ** 0.12 % 2017-01-01
675 Bdiddy74 10.06 % -0.15 % 2017-01-01
676 Tamjay74 10.04 % ** 2.06 % 2017-01-01
677 SKIPPER 10.03 % 0.58 % 2017-01-01
678 sanfran814 * 10.02 % ** 2.70 % 2017-01-05
679 20%_each 10.02 % 1.32 % 2017-01-01
680 CDooge 10.02 % ** 1.32 % 2017-01-01
681 Rube 10.02 % ** 1.32 % 2017-01-01
682 msm24 10.02 % ** 1.32 % 2017-01-01
683 badeye28 10.01 % 2.25 % 2017-01-01
684 Jetpowered78 9.99 % 2.17 % 2017-01-01
685 arhodie 9.96 % ** 0.70 % 2017-01-01
686 Beacher1 9.96 % ** 2.31 % 2017-01-01
687 Wildwoman 9.92 % 2.17 % 2017-01-01
688 rgncajun68 9.92 % ** 0.62 % 2017-01-01
689 Scrappy 9.90 % 0.86 % 2017-01-01
690 catak 9.90 % ** 1.17 % 2017-01-01
691 TURNIPSEED 9.89 % ** 1.47 % 2017-01-01
692 scaltagi 9.89 % ** 1.45 % 2017-01-01
693 indgilbert 9.85 % 1.28 % 2017-01-01
694 scsiguru 9.83 % ** 1.33 % 2017-01-01
695 canisdog 9.81 % ** 1.46 % 2017-01-01
696 bjohnson12 9.80 % 1.53 % 2017-01-01
697 NSLADL2 9.76 % ** 1.52 % 2017-01-01
698 flg22 9.73 % 1.58 % 2017-01-01
699 Bobcat777 * 9.72 % ** 2.21 % 2017-03-07
700 Totohydra 9.70 % 2.16 % 2017-01-01
Rank Username YTD Returns MTD Returns Start Date
701 franky 9.68 % ** 2.31 % 2017-01-01
702 rangerray 9.66 % -0.39 % 2017-01-01
703 argyle64 9.65 % 1.59 % 2017-01-01
704 ravensfan 9.64 % 0.12 % 2017-01-01
705 paperbitch 9.64 % ** 2.00 % 2017-01-01
706 TMUFR 9.63 % 0.76 % 2017-01-01
707 postalmatt 9.63 % -0.14 % 2017-01-01
708 tazzymt 9.62 % 2.18 % 2017-01-01
709 geargirl 9.61 % 1.95 % 2017-01-01
710 dirtboy27 9.60 % 0.29 % 2017-01-01
711 lpac 9.58 % 1.49 % 2017-01-01
712 doge1976 9.58 % ** 0.12 % 2017-01-01
713 soupyBeard 9.57 % ** 2.20 % 2017-01-01
714 Sign_Stealer 9.51 % ** 2.31 % 2017-01-01
715 Mlbplayer86 * 9.50 % ** 1.35 % 2017-01-17
716 thickage * 9.49 % ** 1.81 % 2017-01-25
717 ward5820 9.47 % -0.52 % 2017-01-01
718 hosscube 9.47 % ** 1.33 % 2017-01-01
719 phxmrc 9.46 % 1.16 % 2017-01-01
720 DC2scott * 9.46 % ** 2.16 % 2017-01-30
721 riverdestiny 9.46 % ** 1.81 % 2017-01-01
722 EarlyRTr 9.38 % 0.12 % 2017-01-01
723 Jason.Z 9.38 % 2.31 % 2017-01-01
724 Carpatc 9.35 % ** 1.65 % 2017-01-01
725 Striken7 9.35 % ** 1.39 % 2017-01-01
726 DaBears17 9.32 % ** 2.31 % 2017-01-01
727 lkatme 9.31 % ** 0.89 % 2017-01-01
728 tspintel 9.30 % 2.31 % 2017-01-01
729 cholondo 9.30 % ** 1.15 % 2017-01-01
730 tdekens * 9.29 % ** 1.94 % 2017-02-06
731 Captcaveman 9.24 % 1.56 % 2017-01-01
732 parkbrau 9.22 % ** 1.39 % 2017-01-01
733 Booster 9.21 % 0.62 % 2017-01-01
734 Skorcher 9.21 % 1.85 % 2017-01-01
735 mickeyelk 9.19 % 0.90 % 2017-01-01
736 MrJohnRoss 9.15 % ** 2.70 % 2017-01-01
737 kathy73 9.14 % 2.30 % 2017-01-01
738 Cactus 9.12 % ** 0.12 % 2017-01-01
739 MoneyTalks 9.09 % 0.12 % 2017-01-01
740 USMC6056 * 9.04 % ** 2.51 % 2017-03-31
741 Nadeem 9.03 % 0.87 % 2017-01-01
742 ryencsik 9.03 % ** 1.45 % 2017-01-01
743 jasonlwright 8.99 % ** 1.42 % 2017-01-01
744 BorderBlade 8.96 % 2.02 % 2017-01-01
745 pread 8.96 % ** 2.31 % 2017-01-01
746 lsrodgers 8.96 % ** 0.98 % 2017-01-01
747 LMBF1_SIM 8.94 % -0.48 % 2017-01-01
748 IWTC 8.91 % ** 1.40 % 2017-01-01
749 DudeWayne 8.90 % ** 1.71 % 2017-01-01
750 nanamoma 8.88 % 0.72 % 2017-01-01
Rank Username YTD Returns MTD Returns Start Date
751 OhioOkie 8.88 % ** 2.10 % 2017-01-01
752 Dorado 8.85 % 2.41 % 2017-01-01
753 J-Trader 8.83 % 0.12 % 2017-01-01
754 Towanda 8.82 % 2.51 % 2017-01-01
755 aeroconfigs 8.80 % 1.11 % 2017-01-01
756 Kentucky 8.78 % ** 1.26 % 2017-01-01
757 Timberwoof 8.74 % 0.12 % 2017-01-01
758 ssdave 8.72 % 0.55 % 2017-01-01
759 Rico69 8.72 % 0.12 % 2017-01-01
760 sdhoag13 8.71 % 1.38 % 2017-01-01
761 poi9 8.60 % 1.95 % 2017-01-01
762 Tsunami 8.54 % -0.48 % 2017-01-01
763 hotwings 8.54 % 1.14 % 2017-01-01
764 3days 8.53 % 1.80 % 2017-01-01
765 neptune 8.48 % 1.40 % 2017-01-01
766 ChuckH 8.47 % ** -0.48 % 2017-01-01
767 Whipsaw 8.45 % 0.49 % 2017-01-01
768 Scraps 8.45 % 1.76 % 2017-01-01
769 Roddhsi 8.45 % -0.18 % 2017-01-01
770 Richard_Todd 8.43 % 0.93 % 2017-01-01
771 rchurchwell 8.43 % ** 2.31 % 2017-01-01
772 Sam_5_0 * 8.42 % 2.02 % 2017-01-27
773 Emcd14 8.41 % ** 1.31 % 2017-01-01
774 loco_lobo 8.39 % 1.83 % 2017-01-01
775 Bfejeran 8.38 % ** -0.48 % 2017-01-01
776 spapadopoulos 8.37 % 2.70 % 2017-01-01
777 insocova 8.37 % ** 0.12 % 2017-01-01
778 wayne622 * 8.32 % 0.22 % 2017-01-31
779 hotelyankee16 * 8.32 % ** 2.31 % 2017-01-31
780 arodiaz 8.31 % ** 0.68 % 2017-01-01
781 bayou4cj 8.29 % ** 1.68 % 2017-01-01
782 Bender 8.29 % ** 0.96 % 2017-01-01
783 crommie 8.25 % -0.14 % 2017-01-01
784 murph 8.25 % -0.48 % 2017-01-01
785 Jello 8.25 % ** 2.31 % 2017-01-01
786 Humberson * 8.23 % ** 1.94 % 2017-03-21
787 DaddyTin 8.23 % ** 2.31 % 2017-01-01
788 RushSlowly 8.22 % 0.12 % 2017-01-01
789 Renoir 8.22 % ** 1.24 % 2017-01-01
790 arrow_point 8.16 % ** 2.31 % 2017-01-01
791 sierrabravo11 * 8.13 % ** 2.31 % 2017-01-27
792 Shirt357 * 8.07 % 2.23 % 2017-03-24
793 Mustang2008 * 8.05 % 0.43 % 2017-01-09
794 FireWeatherMet 8.05 % 1.98 % 2017-01-01
795 londi1tagaholy 8.05 % ** 0.93 % 2017-01-01
796 FedUpFed 8.04 % 0.12 % 2017-01-01
797 bailemi 8.04 % ** -0.48 % 2017-01-01
798 razor * 7.98 % ** 1.94 % 2017-03-27
799 CTV49 * 7.98 % ** 1.94 % 2017-03-23
800 BArREttLEEMAKINIT 7.96 % 1.56 % 2017-01-01
Rank Username YTD Returns MTD Returns Start Date
801 skeeter 7.93 % -0.04 % 2017-01-01
802 2Plus 7.93 % 1.38 % 2017-01-01
803 MaxPowers 7.93 % 1.30 % 2017-01-01
804 adamo 7.92 % 0.12 % 2017-01-01
805 evilanne 7.91 % 1.09 % 2017-01-01
806 gatoremt * 7.91 % ** 1.96 % 2017-03-03
807 PTSarge 7.90 % ** 0.46 % 2017-01-01
808 HollywoodNY 7.89 % ** 1.10 % 2017-01-01
809 Rummy1958 7.87 % ** 2.70 % 2017-01-01
810 homieg24 7.86 % 0.94 % 2017-01-01
811 Kevindraws53 7.83 % ** 1.21 % 2017-01-01
812 Pmnick114 7.82 % ** 1.06 % 2017-01-01
813 fossilbird 7.81 % ** 0.90 % 2017-01-01
814 1965Vintage * 7.80 % 0.12 % 2017-01-19
815 fran1775 7.80 % 1.94 % 2017-01-01
816 wwiggin2002 7.78 % -0.48 % 2017-01-01
817 coinmanjack 7.78 % ** 0.99 % 2017-01-01
818 Volfan 7.76 % 0.39 % 2017-01-01
819 Hamhocs 7.75 % 2.30 % 2017-01-01
820 bighurd51 7.74 % ** 2.31 % 2017-01-01
821 12squared 7.73 % 0.74 % 2017-01-01
822 CrgButcher 7.71 % 2.44 % 2017-01-01
823 coop65 7.69 % 0.93 % 2017-01-01
824 SummerLove * 7.68 % ** 1.79 % 2017-04-04
825 JaBlack 7.66 % 0.91 % 2017-01-01
826 LMBF1-CI>S 7.64 % -0.48 % 2017-01-01
827 Cruser 7.62 % 2.31 % 2017-01-01
828 ravenstreasures 7.61 % ** 0.97 % 2017-01-01
829 wevodau 7.51 % ** 2.31 % 2017-01-01
830 netforcer 7.49 % 1.47 % 2017-01-01
831 Nordic 7.49 % 0.12 % 2017-01-01
832 batman 7.46 % 0.63 % 2017-01-01
833 SteelSaving 7.43 % 1.29 % 2017-01-01
834 paymetoplay * 7.42 % ** 2.31 % 2017-01-26
835 Klear 7.38 % 0.80 % 2017-01-01
836 MrBowl 7.37 % 0.67 % 2017-01-01
837 peterson82 7.35 % ** 2.31 % 2017-01-01
838 DistributionKiller 7.34 % 0.22 % 2017-01-01
839 Medic72 7.34 % 1.31 % 2017-01-01
840 magellan * 7.34 % ** 1.32 % 2017-04-03
841 Mongos * 7.33 % 1.87 % 2017-03-30
842 razorbckx 7.33 % ** 0.93 % 2017-01-01
843 JAFI 7.31 % ** 1.25 % 2017-01-01
844 NewBlackShirt 7.30 % ** 2.31 % 2017-01-01
845 TLeo96 7.30 % ** 1.48 % 2017-01-01
846 Risky1 7.29 % ** 1.27 % 2017-01-01
847 Risky11 7.29 % ** 1.27 % 2017-01-01
848 Cathy57 7.28 % -0.48 % 2017-01-01
849 KinoFish * 7.28 % -0.48 % 2017-01-05
850 rookiecsi 7.26 % ** 0.12 % 2017-01-01
Rank Username YTD Returns MTD Returns Start Date
851 ezcomeezgo 7.25 % ** 1.15 % 2017-01-01
852 tton 7.23 % 0.12 % 2017-01-01
853 42RL * 7.23 % ** 1.58 % 2017-04-03
854 kevmanfoo 7.23 % ** 1.95 % 2017-01-01
855 mikekellyonline * 7.22 % ** 1.58 % 2017-05-17
856 Christopher 7.21 % 0.47 % 2017-01-01
857 Rogue 7.20 % 0.68 % 2017-01-01
858 JMoody 7.20 % 0.12 % 2017-01-01
859 sgtbriangreen 7.18 % 0.39 % 2017-01-01
860 Spinks * 7.17 % 1.72 % 2017-03-29
861 dsnidernurse 7.16 % ** 1.11 % 2017-01-01
862 olddb * 7.15 % ** 2.24 % 2017-01-04
863 Luckycat 7.15 % ** 1.10 % 2017-01-01
864 Nightrain * 7.14 % ** 1.68 % 2017-03-20
865 bikeboyjoe 7.13 % ** 0.62 % 2017-01-01
866 dialing4dollars 7.11 % ** 2.31 % 2017-01-01
867 nugget * 7.11 % ** 1.58 % 2017-03-14
868 Viva_La_Migra 7.09 % ** 0.12 % 2017-01-01
869 rich1 7.09 % ** 0.98 % 2017-01-01
870 LongShot 7.04 % 0.33 % 2017-01-01
871 L2020 7.03 % 0.80 % 2017-01-01
872 KevinD 7.03 % ** 0.80 % 2017-01-01
873 wornout 7.03 % ** 0.80 % 2017-01-01
874 derosafj 7.03 % ** 0.80 % 2017-01-01
875 dpardue 7.03 % ** 0.80 % 2017-01-01
876 tucotsp 7.02 % 0.12 % 2017-01-01
877 zegerst 7.01 % ** -0.30 % 2017-01-01
878 talking2jets 7.00 % 1.86 % 2017-01-01
879 Mauser 6.97 % 2.31 % 2017-01-01
880 VANILLAICE * 6.97 % 2.31 % 2017-03-28
881 BIGfRED 6.96 % ** 1.05 % 2017-01-01
882 clester 6.95 % 0.12 % 2017-01-01
883 Turg * 6.94 % ** 2.31 % 2017-02-15
884 soon2retire 6.93 % ** 1.10 % 2017-01-01
885 EWB! 6.90 % 0.00 % 2017-01-01
886 tataberto 6.85 % 1.12 % 2017-01-01
887 timingbill 6.83 % ** 1.17 % 2017-01-01
888 TradingJoe 6.82 % ** 1.04 % 2017-01-01
889 cowboyaug4 6.79 % -0.46 % 2017-01-01
890 roxiemoron 6.79 % ** 1.94 % 2017-01-01
891 StockTater 6.76 % ** 1.39 % 2017-01-01
892 FishSqueezer 6.73 % ** 0.12 % 2017-01-01
893 Pwsimmons 6.72 % ** 1.39 % 2017-01-01
894 confusedcookie 6.71 % 1.58 % 2017-01-01
895 sean101 6.70 % -0.08 % 2017-01-01
896 UWQLI * 6.69 % ** 1.31 % 2017-02-17
897 14ers 6.68 % ** 1.38 % 2017-01-01
898 texaggies89 6.63 % 0.04 % 2017-01-01
899 Lynx 6.60 % ** 0.12 % 2017-01-01
900 thewingreaper 6.59 % 2.70 % 2017-01-01
Rank Username YTD Returns MTD Returns Start Date
901 alexkoonce 6.59 % ** 1.08 % 2017-01-01
902 CadMeUm 6.55 % 0.82 % 2017-01-01
903 gos3319 6.53 % ** 1.34 % 2017-01-01
904 jeffmelendez * 6.52 % ** 1.94 % 2017-02-28
905 Lester130 6.51 % -0.65 % 2017-01-01
906 domino11 6.46 % ** 1.32 % 2017-01-01
907 kras 6.45 % 0.61 % 2017-01-01
908 klaron 6.41 % -0.48 % 2017-01-01
909 DreamboatAnnie 6.38 % -0.12 % 2017-01-01
910 pamkk 6.38 % ** 1.04 % 2017-01-01
911 jsdiven * 6.36 % 2.51 % 2017-03-17
912 Badgers69 6.36 % 0.47 % 2017-01-01
913 cpowith4 6.36 % 0.76 % 2017-01-01
914 Bluewing00 6.35 % 1.18 % 2017-01-01
915 raiderddj 6.35 % -0.71 % 2017-01-01
916 crhuss 6.35 % ** 0.97 % 2017-01-01
917 Redcalf * 6.32 % 2.31 % 2017-02-03
918 2manyirons 6.32 % ** 2.31 % 2017-01-01
919 cenno 6.31 % ** 1.58 % 2017-01-01
920 rayald 6.31 % ** 0.12 % 2017-01-01
921 GoNoles 6.30 % ** 1.28 % 2017-01-01
922 Ducksrule 6.28 % 2.82 % 2017-01-01
923 coastalite 6.26 % ** 1.59 % 2017-01-01
924 daze823 6.24 % 0.18 % 2017-01-01
925 BillD 6.24 % ** 0.84 % 2017-01-01
926 jarhed0689 * 6.23 % 1.09 % 2017-02-22
927 maui21ice 6.23 % ** 2.31 % 2017-01-01
928 mellowmoon 6.22 % 0.12 % 2017-01-01
929 jeffrey77jones 6.18 % -0.46 % 2017-01-01
930 mschewy 6.16 % 0.11 % 2017-01-01
931 fick 6.16 % ** 0.61 % 2017-01-01
932 merlin 6.15 % 0.93 % 2017-01-01
933 NotReally! 6.14 % 0.12 % 2017-01-01
934 c130 6.13 % ** 0.12 % 2017-01-01
935 ztlmike 6.11 % ** 0.12 % 2017-01-01
936 amuraider 6.10 % ** 0.95 % 2017-01-01
937 Rundp 6.10 % ** 0.92 % 2017-01-01
938 Snakebite 6.08 % 0.12 % 2017-01-01
939 kamisu * 6.07 % ** 2.31 % 2017-02-22
940 limebalz 6.06 % 0.29 % 2017-01-01
941 lthor 6.06 % ** 0.12 % 2017-01-01
942 bmthomas0222 6.06 % ** 0.61 % 2017-01-01
943 FAB1 6.04 % 0.09 % 2017-01-01
944 yeot 6.04 % ** 0.77 % 2017-01-01
945 nightman 6.01 % ** 2.31 % 2017-01-01
946 nightsters 5.99 % 1.93 % 2017-01-01
947 FireGal 5.99 % ** 1.94 % 2017-01-01
948 ArkHills 5.97 % 1.45 % 2017-01-01
949 RSJones * 5.97 % 0.72 % 2017-03-08
950 polarbear 5.95 % ** 0.12 % 2017-01-01
Rank Username YTD Returns MTD Returns Start Date
951 jpatriarca 5.93 % ** 0.33 % 2017-01-01
952 rjperry * 5.92 % ** 2.04 % 2017-05-09
953 hemi2020 * 5.92 % ** 2.31 % 2017-02-13
954 MacDaddy 5.90 % 1.13 % 2017-01-01
955 Skorp64 5.84 % 0.22 % 2017-01-01
956 Maine-i-ac 5.81 % 1.26 % 2017-01-01
957 Aitrus 5.80 % -0.48 % 2017-01-01
958 Roymac28 5.79 % 1.35 % 2017-01-01
959 Greg 5.75 % 1.63 % 2017-01-01
960 REDNECK 5.74 % ** 0.85 % 2017-01-01
961 boricua 5.73 % ** 0.12 % 2017-01-01
962 frostybosty 5.72 % 0.12 % 2017-01-01
963 kstephen * 5.69 % ** 0.12 % 2017-03-10
964 ccbadc 5.68 % ** 2.31 % 2017-01-01
965 Clue 5.66 % 1.27 % 2017-01-01
966 barnowlet 5.66 % ** 1.30 % 2017-01-01
967 Sippeeboy 5.65 % 0.12 % 2017-01-01
968 Rainmaker44 5.64 % 0.61 % 2017-01-01
969 bones605 5.64 % 0.51 % 2017-01-01
970 IFTrader 5.55 % 0.40 % 2017-01-01
971 69mustang 5.49 % ** 0.12 % 2017-01-01
972 p3a 5.47 % 0.12 % 2017-01-01
973 walldog * 5.46 % 2.70 % 2017-06-15
974 skshunterb * 5.43 % 2.53 % 2017-07-05
975 lucy 5.40 % -0.18 % 2017-01-01
976 whitmoresl * 5.38 % ** 1.88 % 2017-05-11
977 Britts4life 5.30 % 1.95 % 2017-01-01
978 seajpalm * 5.29 % 2.24 % 2017-05-15
979 baldhippie 5.29 % ** 0.72 % 2017-01-01
980 Gypsy55 5.27 % 0.08 % 2017-01-01
981 buck1623 * 5.25 % ** 2.25 % 2017-05-30
982 2Funds 5.25 % ** 0.58 % 2017-01-01
983 craigerv 5.23 % -0.48 % 2017-01-01
984 TKMike 5.22 % 0.12 % 2017-01-01
985 Sonic 5.21 % 0.00 % 2017-01-01
986 lsbeachwx 5.19 % ** 0.12 % 2017-01-01
987 RobinHood 5.18 % 0.93 % 2017-01-01
988 joh1135 5.18 % ** 0.66 % 2017-01-01
989 korekaza 5.16 % 0.12 % 2017-01-01
990 VPX11 5.08 % 0.43 % 2017-01-01
991 mtstricker 5.08 % ** 0.75 % 2017-01-01
992 FordMan 5.05 % ** 0.65 % 2017-01-01
993 IndianaJones 5.04 % 0.22 % 2017-01-01
994 Attila 5.03 % ** -0.33 % 2017-01-01
995 ILTDtechnical 5.03 % ** -0.48 % 2017-01-01
996 rallythis 4.95 % ** 0.12 % 2017-01-01
997 TSP4Soccer 4.93 % ** 0.45 % 2017-01-01
998 Bmoredunks 4.89 % 0.12 % 2017-01-01
999 lettsj * 4.86 % ** 2.31 % 2017-02-22
1000 spgenius 4.79 % -0.06 % 2017-01-01
Rank Username YTD Returns MTD Returns Start Date
1001 chingerson 4.71 % ** 0.72 % 2017-01-01
1002 bullsheet 4.71 % ** 0.89 % 2017-01-01
1003 olddog 4.70 % ** 1.04 % 2017-01-01
1004 ilduce * 4.68 % 2.13 % 2017-06-27
1005 NASAedStevens 4.64 % ** 0.42 % 2017-01-01
1006 Tangmonke 4.61 % -0.25 % 2017-01-01
1007 bhep * 4.61 % ** 2.31 % 2017-01-05
1008 sagramore 4.61 % ** 0.30 % 2017-01-01
1009 brobin10 4.59 % -0.40 % 2017-01-01
1010 kave 4.58 % 0.46 % 2017-01-01
1011 tdorney1 4.58 % ** 0.58 % 2017-01-01
1012 cawwilson 4.52 % 1.95 % 2017-01-01
1013 Becky * 4.50 % 1.85 % 2017-05-24
1014 dmanron58 4.49 % ** 0.12 % 2017-01-01
1015 Skyrider2020 4.49 % ** 0.12 % 2017-01-01
1016 dwwright3rd 4.47 % ** 1.05 % 2017-01-01
1017 North 4.47 % ** 0.60 % 2017-01-01
1018 mrduckmd1 4.43 % 0.66 % 2017-01-01
1019 bohammer 4.43 % ** 0.54 % 2017-01-01
1020 PAINTER533 4.42 % ** 0.48 % 2017-01-01
1021 farmerjack 4.41 % ** 0.47 % 2017-01-01
1022 firstpersonpl 4.40 % 1.17 % 2017-01-01
1023 KNUCKLEDRAGGER 4.39 % 0.26 % 2017-01-01
1024 goldenyears 4.39 % 0.46 % 2017-01-01
1025 L-Income 4.39 % 0.46 % 2017-01-01
1026 ricokaro 4.39 % ** 0.46 % 2017-01-01
1027 betterdeal 4.39 % ** 0.46 % 2017-01-01
1028 Crewdog 4.39 % ** 0.46 % 2017-01-01
1029 anthony 4.37 % ** 0.12 % 2017-01-01
1030 gman48 4.32 % 0.76 % 2017-01-01
1031 Meteorology 4.31 % 0.12 % 2017-01-01
1032 MohammadXX 4.29 % 0.58 % 2017-01-01
1033 TwoYrs2Go 4.26 % 0.74 % 2017-01-01
1034 Bowfish 4.26 % ** 0.12 % 2017-01-01
1035 kobedog 4.26 % ** 0.74 % 2017-01-01
1036 nancyj * 4.24 % ** 2.70 % 2017-06-09
1037 EarlyRetire 4.22 % 0.64 % 2017-01-01
1038 sbates 4.17 % ** 0.57 % 2017-01-01
1039 CallMeIshmael 4.12 % ** 0.36 % 2017-01-01
1040 iceman1jag 4.10 % ** 0.74 % 2017-01-01
1041 ephsns2 4.09 % 0.61 % 2017-01-01
1042 rytrucker 4.09 % ** 0.48 % 2017-01-01
1043 1FraGar 4.08 % ** -0.48 % 2017-01-01
1044 Holden_Caufield 4.05 % ** 0.12 % 2017-01-01
1045 Spaniard 4.04 % ** -0.48 % 2017-01-01
1046 helpme 3.91 % ** 0.17 % 2017-01-01
1047 99percent 3.90 % ** -0.48 % 2017-01-01
1048 tetonshasta * 3.89 % 2.60 % 2017-01-17
1049 prisonguard224 3.86 % ** 0.12 % 2017-01-01
1050 Erie 3.84 % 0.12 % 2017-01-01
Rank Username YTD Returns MTD Returns Start Date
1051 1daybe * 3.83 % ** 0.12 % 2017-02-06
1052 DansTSP 3.83 % ** 1.00 % 2017-01-01
1053 jball135 * 3.75 % 2.19 % 2017-06-05
1054 nate4sho 3.75 % ** 0.12 % 2017-01-01
1055 tink 3.74 % ** 0.12 % 2017-01-01
1056 1derman 3.72 % ** 0.12 % 2017-01-01
1057 rudyd3 3.70 % ** 0.44 % 2017-01-01
1058 marine 3.65 % ** 0.62 % 2017-01-01
1059 soupydoom 3.53 % 1.79 % 2017-01-01
1060 Latonia64 3.53 % ** -0.33 % 2017-01-01
1061 meyersj 3.46 % ** 0.12 % 2017-01-01
1062 Xilonen 3.45 % ** 0.39 % 2017-01-01
1063 cosinecrunchdown 3.37 % -0.48 % 2017-01-01
1064 ybnormal 3.37 % -0.48 % 2017-01-01
1065 MarkC 3.37 % ** -0.48 % 2017-01-01
1066 Gahiker 3.37 % ** -0.48 % 2017-01-01
1067 EZ2K 3.37 % ** -0.48 % 2017-01-01
1068 F-fund 3.37 % -0.48 % 2017-01-01
1069 trevor1953 3.37 % ** -0.48 % 2017-01-01
1070 MrVela 3.37 % ** -0.48 % 2017-01-01
1071 AHarvey311990 3.37 % ** -0.48 % 2017-01-01
1072 Muneco803 3.37 % ** -0.48 % 2017-01-01
1073 icemanknows 3.37 % ** -0.48 % 2017-01-01
1074 Titotsp 3.37 % ** -0.48 % 2017-01-01
1075 HALL 3.37 % ** -0.48 % 2017-01-01
1076 ContrarianJeff 3.37 % ** -0.48 % 2017-01-01
1077 NOVANole 3.37 % ** -0.48 % 2017-01-01
1078 nbialek2 3.37 % ** -0.48 % 2017-01-01
1079 JACKNAZ0506 3.37 % ** -0.48 % 2017-01-01
1080 Itchn2retire 3.37 % ** -0.48 % 2017-01-01
1081 pmcriaco 3.37 % ** -0.48 % 2017-01-01
1082 Litlbear62 3.37 % ** -0.48 % 2017-01-01
1083 milopro 3.37 % ** -0.48 % 2017-01-01
1084 cologal8 3.37 % ** -0.48 % 2017-01-01
1085 staticoverdub 3.37 % ** -0.48 % 2017-01-01
1086 samNme 3.37 % ** -0.48 % 2017-01-01
1087 keepnitreal 3.37 % ** -0.48 % 2017-01-01
1088 wayne 3.37 % ** -0.48 % 2017-01-01
1089 dprince 3.37 % ** -0.48 % 2017-01-01
1090 dibyadas 3.37 % ** -0.48 % 2017-01-01
1091 navyseal641 3.37 % ** -0.48 % 2017-01-01
1092 VincentP 3.37 % ** -0.48 % 2017-01-01
1093 Adventurer 3.37 % ** -0.48 % 2017-01-01
1094 azfreed5 3.37 % ** -0.48 % 2017-01-01
1095 Colegan 3.37 % ** -0.48 % 2017-01-01
1096 DINK 3.37 % ** -0.48 % 2017-01-01
1097 DonStar 3.37 % ** -0.48 % 2017-01-01
1098 drifter81 3.37 % ** -0.48 % 2017-01-01
1099 elitesauce 3.37 % ** -0.48 % 2017-01-01
1100 hoodoo 3.37 % ** -0.48 % 2017-01-01
Rank Username YTD Returns MTD Returns Start Date
1101 huskerchad 3.37 % ** -0.48 % 2017-01-01
1102 JD797 3.37 % ** -0.48 % 2017-01-01
1103 Labsroc01 3.37 % ** -0.48 % 2017-01-01
1104 Luscombesfly 3.37 % ** -0.48 % 2017-01-01
1105 masedog81 3.37 % ** -0.48 % 2017-01-01
1106 mpdcop 3.37 % ** -0.48 % 2017-01-01
1107 nab0325 3.37 % ** -0.48 % 2017-01-01
1108 pmelchman 3.37 % ** -0.48 % 2017-01-01
1109 SS4183 3.37 % ** -0.48 % 2017-01-01
1110 TSPNotley 3.37 % ** -0.48 % 2017-01-01
1111 vector4tfc 3.37 % ** -0.48 % 2017-01-01
1112 yeelah1 3.37 % ** -0.48 % 2017-01-01
1113 slickcheech 3.37 % ** -0.48 % 2017-01-01
1114 kooke 3.37 % ** -0.48 % 2017-01-01
1115 not_too_shabby 3.37 % ** -0.48 % 2017-01-01
1116 qibovin 3.32 % ** 0.23 % 2017-01-01
1117 FMS_MITCH 3.30 % ** 0.12 % 2017-01-01
1118 RickandRo 3.30 % ** 0.12 % 2017-01-01
1119 safetyguy 3.28 % 0.12 % 2017-01-01
1120 wkevinc * 3.28 % ** -0.48 % 2017-02-15
1121 NOLANDER 3.24 % 2.70 % 2017-01-01
1122 dallashalos 3.19 % 0.12 % 2017-01-01
1123 hayman 3.18 % ** 0.12 % 2017-01-01
1124 artie32 3.15 % 0.48 % 2017-01-01
1125 slayer72 3.14 % 0.28 % 2017-01-01
1126 Dsbouch1 3.13 % ** 0.12 % 2017-01-01
1127 BamaAF 3.12 % 0.12 % 2017-01-01
1128 Mr_Boooom 3.09 % ** -0.48 % 2017-01-01
1129 BellCopterJockey * 3.03 % 2.70 % 2017-08-16
1130 slowhand1964 3.02 % ** 0.30 % 2017-01-01
1131 orange * 2.98 % 2.70 % 2017-07-13
1132 hindsnr 2.95 % ** -0.33 % 2017-01-01
1133 ctijolly * 2.94 % ** 1.57 % 2017-06-06
1134 scooter0037 2.94 % ** -0.33 % 2017-01-01
1135 Golfdude 2.92 % 0.12 % 2017-01-01
1136 Udflyer01 2.87 % -0.48 % 2017-01-01
1137 jumboscott * 2.86 % 1.51 % 2017-08-10
1138 jrhutch 2.81 % ** -0.48 % 2017-01-01
1139 Thunderhorse 2.72 % ** -0.25 % 2017-01-01
1140 btreecej 2.70 % ** -0.24 % 2017-01-01
1141 alevin 2.68 % 0.12 % 2017-01-01
1142 twilliams203 * 2.65 % ** 1.84 % 2017-07-13
1143 whiskyfire * 2.60 % 1.68 % 2017-06-08
1144 TerpTrader 2.53 % ** 0.12 % 2017-01-01
1145 kdub 2.53 % ** -0.19 % 2017-01-01
1146 road_kill 2.52 % ** -0.18 % 2017-01-01
1147 BigSnack 2.52 % ** -0.18 % 2017-01-01
1148 JABS 2.48 % 0.71 % 2017-01-01
1149 raymonster * 2.47 % 2.37 % 2017-08-08
1150 Tawny27 2.42 % 0.26 % 2017-01-01
Rank Username YTD Returns MTD Returns Start Date
1151 Semper 2.40 % ** 0.12 % 2017-01-01
1152 msls6 2.38 % ** 0.12 % 2017-01-01
1153 parton1080 2.35 % ** -0.12 % 2017-01-01
1154 stbondar 2.34 % ** -0.18 % 2017-01-01
1155 Longstreet 2.29 % ** 0.12 % 2017-01-01
1156 slwhand * 2.27 % ** 1.12 % 2017-07-03
1157 RAM56 2.22 % 0.23 % 2017-01-01
1158 Robvegas 2.19 % ** 0.12 % 2017-01-01
1159 EmoDx 2.18 % ** -0.07 % 2017-01-01
1160 Elkhunter 2.18 % ** -0.07 % 2017-01-01
1161 swordandcross 2.17 % 0.61 % 2017-01-01
1162 CaptainVic 2.15 % ** 0.19 % 2017-01-01
1163 mbergevinjr 2.13 % 0.12 % 2017-01-01
1164 Blarney 2.11 % ** 0.12 % 2017-01-01
1165 williamr 2.10 % ** -0.03 % 2017-01-01
1166 truema666ot 2.10 % ** -0.04 % 2017-01-01
1167 Tmahal720 2.07 % ** 0.49 % 2017-01-01
1168 SMooreAce 2.05 % ** 0.18 % 2017-01-01
1169 Ship 2.01 % ** -0.01 % 2017-01-01
1170 llealo53 1.99 % ** 0.12 % 2017-01-01
1171 PessOptimist 1.93 % ** 0.15 % 2017-01-01
1172 SayWhat 1.84 % ** 0.06 % 2017-01-01
1173 cchase06 * 1.83 % ** 0.94 % 2017-03-16
1174 whitemingo 1.82 % 1.30 % 2017-01-01
1175 userque 1.80 % -0.25 % 2017-01-01
1176 Kaulana 1.80 % 1.88 % 2017-01-01
1177 Herdman * 1.80 % 2.23 % 2017-08-07
1178 edeckman 1.80 % 0.12 % 2017-01-01
1179 DLBJr 1.78 % ** 0.12 % 2017-01-01
1180 lmcues 1.78 % ** 0.12 % 2017-01-01
1181 Wasp49 1.78 % ** 0.13 % 2017-01-01
1182 jmontalto19 * 1.71 % 2.31 % 2017-07-27
1183 tmc1045 1.67 % 0.12 % 2017-01-01
1184 dtf1993 * 1.67 % 1.67 % 2017-09-01
1185 pecos_diamond 1.67 % 0.12 % 2017-01-01
1186 Myemal 1.67 % ** 0.12 % 2017-01-01
1187 grandma 1.67 % ** 0.12 % 2017-01-01
1188 Anaconda 1.67 % ** 0.12 % 2017-01-01
1189 shybear 1.67 % ** 0.12 % 2017-01-01
1190 WhiskeyOne 1.67 % ** 0.12 % 2017-01-01
1191 Edna1890 1.67 % ** 0.12 % 2017-01-01
1192 spinachetr 1.67 % ** 0.12 % 2017-01-01
1193 Captaincuse 1.67 % ** 0.12 % 2017-01-01
1194 kdraya 1.67 % ** 0.12 % 2017-01-01
1195 vectorman 1.67 % ** 0.12 % 2017-01-01
1196 St3gz 1.67 % ** 0.12 % 2017-01-01
1197 soyousay 1.67 % ** 0.12 % 2017-01-01
1198 spikeyball 1.67 % ** 0.12 % 2017-01-01
1199 burros-ark 1.67 % ** 0.12 % 2017-01-01
1200 jonfresno 1.67 % ** 0.12 % 2017-01-01
Rank Username YTD Returns MTD Returns Start Date
1201 angus36 1.67 % ** 0.12 % 2017-01-01
1202 Lostdawg 1.67 % ** 0.12 % 2017-01-01
1203 Master_Key 1.67 % ** 0.12 % 2017-01-01
1204 G-fund 1.67 % 0.12 % 2017-01-01
1205 Nick 1.67 % ** 0.12 % 2017-01-01
1206 alcusmc 1.67 % ** 0.12 % 2017-01-01
1207 jaybro61 1.67 % ** 0.12 % 2017-01-01
1208 OBXTrader 1.67 % ** 0.12 % 2017-01-01
1209 Groovin 1.67 % ** 0.12 % 2017-01-01
1210 Toughmudder 1.67 % ** 0.12 % 2017-01-01
1211 JEWELS1 1.67 % ** 0.12 % 2017-01-01
1212 DouglasL 1.67 % ** 0.12 % 2017-01-01
1213 bobgrem 1.67 % ** 0.12 % 2017-01-01
1214 totallykool 1.67 % ** 0.12 % 2017-01-01
1215 Congee 1.67 % ** 0.12 % 2017-01-01
1216 PKevin 1.67 % ** 0.12 % 2017-01-01
1217 skycophigh 1.67 % ** 0.12 % 2017-01-01
1218 Boomer 1.67 % ** 0.12 % 2017-01-01
1219 mtom938 1.67 % ** 0.12 % 2017-01-01
1220 WorkFE 1.67 % ** 0.12 % 2017-01-01
1221 Mr_Shekels 1.67 % ** 0.12 % 2017-01-01
1222 Zags_Cal 1.67 % ** 0.12 % 2017-01-01
1223 ebikerz 1.67 % ** 0.12 % 2017-01-01
1224 bmneveu 1.67 % ** 0.12 % 2017-01-01
1225 kar_crazy 1.67 % ** 0.12 % 2017-01-01
1226 Kimber411 1.67 % ** 0.12 % 2017-01-01
1227 Heloguy 1.67 % ** 0.12 % 2017-01-01
1228 Stonehands 1.67 % ** 0.12 % 2017-01-01
1229 quickfuze 1.67 % ** 0.12 % 2017-01-01
1230 Skunked 1.67 % ** 0.12 % 2017-01-01
1231 ChiTown 1.67 % ** 0.12 % 2017-01-01
1232 BB-Stacker 1.67 % ** 0.12 % 2017-01-01
1233 Old_Town 1.67 % ** 0.12 % 2017-01-01
1234 wasaki 1.67 % ** 0.12 % 2017-01-01
1235 OKSHEMP 1.67 % ** 0.12 % 2017-01-01
1236 eddy_t 1.67 % ** 0.12 % 2017-01-01
1237 totoylv 1.67 % ** 0.12 % 2017-01-01
1238 WildBuzz 1.67 % ** 0.12 % 2017-01-01
1239 zdcman 1.67 % ** 0.12 % 2017-01-01
1240 Jerry 1.67 % ** 0.12 % 2017-01-01
1241 hummingbird 1.67 % ** 0.12 % 2017-01-01
1242 freechina 1.67 % ** 0.12 % 2017-01-01
1243 Zepplin4 1.67 % ** 0.12 % 2017-01-01
1244 theo15 1.67 % ** 0.12 % 2017-01-01
1245 robo 1.67 % ** 0.12 % 2017-01-01
1246 JMajor 1.67 % ** 0.12 % 2017-01-01
1247 polanece 1.67 % ** 0.12 % 2017-01-01
1248 LimaFox 1.67 % ** 0.12 % 2017-01-01
1249 trmill2 1.67 % ** 0.12 % 2017-01-01
1250 FlyingTurtle 1.67 % ** 0.12 % 2017-01-01
Rank Username YTD Returns MTD Returns Start Date
1251 gumshoe45 1.67 % ** 0.12 % 2017-01-01
1252 lostclimbing 1.67 % ** 0.12 % 2017-01-01
1253 ProfitHitz 1.67 % ** 0.12 % 2017-01-01
1254 Aquaman 1.67 % ** 0.12 % 2017-01-01
1255 tinker1 1.67 % ** 0.12 % 2017-01-01
1256 korrianderson 1.67 % ** 0.12 % 2017-01-01
1257 Deano64 1.67 % ** 0.12 % 2017-01-01
1258 HoustonJoe 1.67 % ** 0.12 % 2017-01-01
1259 kb9nvh 1.67 % ** 0.12 % 2017-01-01
1260 mochatater 1.67 % ** 0.12 % 2017-01-01
1261 mrbossman 1.67 % ** 0.12 % 2017-01-01
1262 Sepr8tr 1.67 % ** 0.12 % 2017-01-01
1263 woodsman 1.67 % ** 0.12 % 2017-01-01
1264 budfox 1.67 % ** 0.12 % 2017-01-01
1265 ExtremeWX 1.67 % ** 0.12 % 2017-01-01
1266 goldwell 1.67 % ** 0.12 % 2017-01-01
1267 mebrow5 1.67 % ** 0.12 % 2017-01-01
1268 minnow 1.67 % ** 0.12 % 2017-01-01
1269 mmk119 1.67 % ** 0.12 % 2017-01-01
1270 RATMONEY 1.67 % ** 0.12 % 2017-01-01
1271 FairShare 1.67 % ** 0.12 % 2017-01-01
1272 beachpeach80 1.67 % ** 0.12 % 2017-01-01
1273 budmaster 1.67 % ** 0.12 % 2017-01-01
1274 sabri11 1.67 % ** 0.12 % 2017-01-01
1275 osseo 1.67 % ** 0.12 % 2017-01-01
1276 INSITES 1.67 % ** 0.12 % 2017-01-01
1277 Kite_Runner 1.67 % ** 0.12 % 2017-01-01
1278 Rotre52 1.67 % ** 0.12 % 2017-01-01
1279 anthonyc220 1.67 % ** 0.12 % 2017-01-01
1280 nsurf9 1.67 % ** 0.12 % 2017-01-01
1281 1peckcd4 1.67 % ** 0.12 % 2017-01-01
1282 2peaches2oranges 1.67 % ** 0.12 % 2017-01-01
1283 agrimm01 1.67 % ** 0.12 % 2017-01-01
1284 Bantley64 1.67 % ** 0.12 % 2017-01-01
1285 BayouTrader 1.67 % ** 0.12 % 2017-01-01
1286 bgoldman 1.67 % ** 0.12 % 2017-01-01
1287 blueskies 1.67 % ** 0.12 % 2017-01-01
1288 Br0k3n4rr0w 1.67 % ** 0.12 % 2017-01-01
1289 BULLonPARADE 1.67 % ** 0.12 % 2017-01-01
1290 BUSHIDO 1.67 % ** 0.12 % 2017-01-01
1291 cedrus 1.67 % ** 0.12 % 2017-01-01
1292 cgooch 1.67 % ** 0.12 % 2017-01-01
1293 coerik1983 1.67 % ** 0.12 % 2017-01-01
1294 Concabar 1.67 % ** 0.12 % 2017-01-01
1295 Corepuncher 1.67 % ** 0.12 % 2017-01-01
1296 Cortez 1.67 % ** 0.12 % 2017-01-01
1297 crunchy_fo 1.67 % ** 0.12 % 2017-01-01
1298 DA44 1.67 % ** 0.12 % 2017-01-01
1299 Deadmeat99 1.67 % ** 0.12 % 2017-01-01
1300 Ed_the_Fed 1.67 % ** 0.12 % 2017-01-01
Rank Username YTD Returns MTD Returns Start Date
1301 FishinFool 1.67 % ** 0.12 % 2017-01-01
1302 flipper180 1.67 % ** 0.12 % 2017-01-01
1303 foolsgold 1.67 % ** 0.12 % 2017-01-01